[[{"header":{"parameterUnit":"m.s-1","parameterCategory":1,"la1":30.2991,"la2":30.254,"lo1":-89.0895,"lo2":-89.0444,"dy":0.0017,"dx":0.0017,"nx":28,"ny":28,"refTime":"2025-09-11T21:00:00:Z","depth":0,"parameterNumber":2,"parameterNumberName":"U-component_of_WINDS"},"data":[0,0,0,0,0,0,0,0,0,0,0,0,0,0,0,0,0,0,0,0,0,0,0,0,0,0,0,0,0,0,0,0,0,0,0,0,0,0,0,0,0,0,0,0,0,0,0,0,0,0,0,0,0,0,0,0,0,0,-2.1704,-2.1703,0,-2.1622,-2.1621,-2.162,-2.1573,-2.1573,-2.1573,-2.1573,-2.1486,-2.1484,-2.1482,0,0,0,0,0,0,0,0,0,0,0,0,0,-2.1816,-2.1814,-2.1704,-2.1703,-2.1702,-2.1622,-2.1621,-2.162,-2.1573,-2.1573,-2.1573,-2.1573,-2.1486,-2.1484,-2.1481,0,0,0,0,0,0,0,0,0,0,0,0,0,-2.1754,-2.1814,-2.1704,-2.1669,-2.1665,-2.1622,-2.1621,-2.162,-2.1573,-2.1573,-2.1573,-2.1573,-2.1487,-2.1484,-2.1481,-2.1466,0,0,-2.1471,-2.147,0,0,0,0,0,0,0,0,-2.1758,-2.175,-2.1675,-2.1671,-2.1667,-2.1608,-2.1629,-2.1568,-2.1574,-2.1608,-2.1573,-2.1573,-2.1526,-2.152,-2.1505,-2.1462,-2.1458,-2.1471,-2.1469,-2.1467,-2.1466,0,0,0,0,0,0,0,-2.1762,-2.1753,-2.1671,-2.1674,-2.1669,-2.1656,-2.1647,-2.1617,-2.1569,-2.1605,-2.1602,-2.1593,-2.1524,-2.1508,-2.1503,-2.1457,-2.1471,-2.1468,-2.1466,-2.1465,-2.1397,-2.1397,0,0,0,0,0,0,-2.1772,-2.1757,-2.1674,-2.1669,-2.1713,-2.1655,-2.1644,-2.1627,-2.157,-2.1561,-2.1593,-2.1591,-2.1514,-2.1506,-2.1499,-2.1478,-2.1467,-2.1464,-2.1462,-2.1397,-2.1397,-2.1397,0,0,0,0,0,0,-2.1775,-2.1765,-2.1677,-2.1712,-2.17,-2.1653,-2.1634,-2.1625,-2.161,-2.1561,-2.1552,-2.1586,-2.1513,-2.1504,-2.1475,-2.1474,-2.1463,-2.146,-2.1397,-2.1397,-2.1397,-2.1435,0,0,0,0,0,0,-2.1778,-2.1767,-2.1761,-2.1712,-2.1698,-2.1655,-2.1634,-2.1624,-2.1605,-2.1601,-2.1551,-2.1543,-2.1512,-2.148,-2.1472,-2.147,-2.1457,-2.1396,-2.1397,-2.1397,-2.1434,-2.1437,-2.1439,0,0,0,0,0,-2.1783,-2.1774,-2.1761,-2.1751,-2.169,-2.1655,-2.1647,-2.1613,-2.1605,-2.1598,-2.1567,-2.1545,-2.1476,-2.1477,-2.1467,-2.1465,-2.1396,-2.1397,-2.1397,-2.1432,-2.1436,-2.1439,0,0,0,0,0,0,-2.1822,-2.1767,-2.1752,-2.1728,-2.1697,-2.1647,-2.1638,-2.1618,-2.1587,-2.1585,-2.1543,-2.1532,-2.1507,-2.1483,-2.1486,-2.1447,-2.1434,-2.1432,-2.1464,-2.1467,-2.147,-2.1476,-2.1455,0,0,0,0,0,-2.1829,-2.1806,-2.1758,-2.1741,-2.1727,-2.1685,-2.1668,-2.1645,-2.1611,-2.1597,-2.1563,-2.153,-2.1501,-2.1482,-2.1453,-2.143,-2.1418,-2.1423,-2.1426,-2.1428,-2.1427,-2.1414,-2.1415,-2.1398,-2.1398,-2.1398,0,0,-2.1841,-2.1808,-2.1795,-2.1748,-2.1722,-2.1698,-2.1674,-2.165,-2.1632,-2.1593,-2.1564,-2.1538,-2.1498,-2.1472,-2.1459,-2.1451,-2.143,-2.1429,-2.1431,-2.1429,-2.1414,-2.1416,-2.1417,-2.1398,-2.1398,-2.1398,0,0,-2.1851,-2.1824,-2.1807,-2.1781,-2.1741,-2.1714,-2.171,-2.1664,-2.1646,-2.1616,-2.1587,-2.1564,-2.1515,-2.1488,-2.1467,-2.1468,-2.1447,-2.146,-2.1474,-2.1461,-2.1462,-2.1463,-2.1464,-2.1464,-2.1459,-2.1459,-2.1459,0,-2.187,-2.1835,-2.18,-2.1778,-2.1758,-2.1724,-2.1706,-2.1682,-2.1634,-2.1621,-2.1613,-2.1551,-2.1521,-2.1489,-2.1489,-2.1474,-2.1468,-2.1465,-2.1465,-2.1466,-2.1466,-2.1466,-2.1466,-2.1461,-2.1461,-2.146,-2.146,0,-2.1861,-2.1837,-2.1828,-2.1784,-2.1763,-2.1743,-2.1705,-2.1688,-2.1667,-2.164,-2.1611,-2.1574,-2.1537,-2.1527,-2.1506,-2.1492,-2.1488,-2.1473,-2.1459,-2.147,-2.147,-2.1469,-2.1464,-2.1463,-2.1462,-2.1462,0,0,-2.1893,-2.1832,-2.1829,-2.1809,-2.1763,-2.1743,-2.1722,-2.1687,-2.1673,-2.1641,-2.1622,-2.1582,-2.1568,-2.1545,-2.152,-2.1509,-2.1512,-2.1495,-2.1493,-2.15,-2.1495,-2.1507,-2.1507,-2.1498,-2.1498,-2.1497,-2.1498,0,-2.1896,-2.1858,-2.1826,-2.1799,-2.1776,-2.1743,-2.1724,-2.1694,-2.1669,-2.1645,-2.1616,-2.1588,-2.1572,-2.1558,-2.1546,-2.1515,-2.1511,-2.1514,-2.1479,-2.1478,-2.149,-2.1507,-2.1519,-2.1521,-2.1498,-2.1498,-2.1498,0,-2.1895,-2.1866,-2.1837,-2.1795,-2.1784,-2.1768,-2.1733,-2.1711,-2.1676,-2.1658,-2.1633,-2.1608,-2.1583,-2.1572,-2.1536,-2.154,-2.1523,-2.1506,-2.1505,-2.15,-2.1489,-2.1503,-2.1521,-2.1522,-2.1497,-2.1497,-2.1497,0,-2.1922,-2.1875,-2.1852,-2.1836,-2.1786,-2.1775,-2.1754,-2.1718,-2.1699,-2.1669,-2.1656,-2.1623,-2.1605,-2.1579,-2.1545,-2.154,-2.1514,-2.1499,-2.1498,-2.1499,-2.1494,-2.1495,-2.151,-2.1484,-2.1484,-2.1484,-2.1484,0,-2.1929,-2.1912,-2.1864,-2.1849,-2.183,-2.1794,-2.1775,-2.175,-2.1719,-2.1699,-2.1668,-2.1649,-2.1606,-2.1581,-2.1555,-2.153,-2.1522,-2.1506,-2.1499,-2.1509,-2.1511,-2.1498,-2.1497,-2.1484,-2.1484,-2.1484,-2.1484,0,-2.1955,-2.1922,-2.1895,-2.185,-2.1838,-2.1826,-2.1787,-2.1771,-2.1745,-2.1719,-2.1711,-2.1669,-2.1639,-2.1603,-2.1561,-2.1543,-2.1521,-2.151,-2.1533,-2.1529,-2.153,-2.1531,-2.1538,-2.1537,-2.1511,-2.1511,-2.1512,0,-2.1962,-2.1948,-2.1903,-2.1888,-2.1867,-2.1843,-2.1824,-2.1788,-2.177,-2.1729,-2.1719,-2.1687,-2.1659,-2.1613,-2.1578,-2.1546,-2.1534,-2.1539,-2.1529,-2.154,-2.1535,-2.1536,-2.1535,-2.1542,-2.1542,-2.1543,-2.1543,0,-2.1977,-2.1962,-2.1937,-2.1906,-2.1885,-2.1858,-2.1831,-2.182,-2.1778,-2.1758,-2.1728,-2.1707,-2.1666,-2.1634,-2.1598,-2.1574,-2.1552,-2.1547,-2.1544,-2.1554,-2.1569,-2.1561,-2.1541,-2.1546,-2.1546,-2.1546,-2.1546,-2.1545,-2.1993,-2.1981,-2.1947,-2.192,-2.1896,-2.1871,-2.1854,-2.1827,-2.1801,-2.1765,-2.1745,-2.1716,-2.1681,-2.163,-2.1608,-2.1583,-2.1575,-2.1572,-2.1571,-2.1571,-2.1575,-2.1573,-2.1576,-2.1576,-2.1576,-2.1576,-2.1576,0,-2.2008,-2.1985,-2.196,-2.1924,-2.1902,-2.1884,-2.1853,-2.1836,-2.1811,-2.1781,-2.1755,-2.1721,-2.1691,-2.1654,-2.1621,-2.1609,-2.1598,-2.1602,-2.1602,-2.1597,-2.1584,-2.1589,-2.1611,-2.1611,-2.1611,-2.1611,-2.1611,-2.1611,-2.2013,-2.199,-2.1971,-2.1936,-2.1912,-2.1885,-2.1868,-2.1845,-2.1821,-2.1785,-2.176,-2.1737,-2.1704,-2.1668,-2.164,-2.163,-2.1619,-2.1626,-2.1613,-2.1601,-2.1598,-2.1595,-2.16,-2.1624,-2.1624,-2.1628,-2.1628,-2.1628]},{"header":{"parameterUnit":"m.s-1","parameterCategory":1,"la1":30.2991,"la2":30.254,"lo1":-89.0895,"lo2":-89.0444,"dy":0.0017,"dx":0.0017,"nx":28,"ny":28,"refTime":"2025-09-11T21:00:00:Z","depth":0,"parameterNumber":3,"parameterNumberName":"V-component_of_WINDS"},"data":[0,0,0,0,0,0,0,0,0,0,0,0,0,0,0,0,0,0,0,0,0,0,0,0,0,0,0,0,0,0,0,0,0,0,0,0,0,0,0,0,0,0,0,0,0,0,0,0,0,0,0,0,0,0,0,0,0,0,-0.3221,-0.3222,0,-0.3266,-0.3267,-0.3267,-0.3291,-0.3291,-0.3291,-0.3291,-0.3339,-0.334,-0.3341,0,0,0,0,0,0,0,0,0,0,0,0,0,-0.3159,-0.316,-0.3221,-0.3222,-0.3222,-0.3266,-0.3267,-0.3267,-0.3291,-0.3291,-0.3291,-0.3291,-0.3339,-0.334,-0.3342,0,0,0,0,0,0,0,0,0,0,0,0,0,-0.3193,-0.316,-0.3221,-0.3239,-0.3241,-0.3266,-0.3267,-0.3267,-0.3291,-0.3291,-0.3291,-0.3291,-0.3338,-0.334,-0.3342,-0.3352,0,0,-0.3348,-0.3348,0,0,0,0,0,0,0,0,-0.3191,-0.3195,-0.3236,-0.3238,-0.324,-0.3273,-0.3262,-0.3296,-0.3291,-0.3272,-0.3291,-0.3291,-0.3317,-0.3321,-0.3329,-0.3355,-0.3357,-0.3348,-0.3349,-0.335,-0.335,0,0,0,0,0,0,0,-0.3189,-0.3193,-0.3239,-0.3236,-0.3239,-0.3246,-0.3251,-0.3269,-0.3294,-0.3274,-0.3275,-0.328,-0.3318,-0.3327,-0.333,-0.3357,-0.3348,-0.3349,-0.335,-0.3351,-0.3397,-0.3397,0,0,0,0,0,0,-0.3183,-0.3191,-0.3237,-0.324,-0.3215,-0.3247,-0.3253,-0.3262,-0.3294,-0.3298,-0.328,-0.3281,-0.3324,-0.3328,-0.3332,-0.3348,-0.335,-0.3351,-0.3352,-0.3396,-0.3397,-0.3397,0,0,0,0,0,0,-0.3181,-0.3187,-0.3236,-0.3216,-0.3223,-0.3248,-0.3259,-0.3263,-0.3272,-0.3299,-0.3303,-0.3284,-0.3324,-0.333,-0.3348,-0.335,-0.3352,-0.3354,-0.3396,-0.3397,-0.3397,-0.3379,0,0,0,0,0,0,-0.318,-0.3186,-0.3189,-0.3216,-0.3224,-0.3249,-0.3259,-0.3264,-0.3275,-0.3277,-0.3304,-0.3308,-0.3325,-0.3345,-0.3349,-0.3353,-0.3355,-0.3396,-0.3396,-0.3397,-0.338,-0.3379,-0.3378,0,0,0,0,0,-0.3177,-0.3183,-0.319,-0.3195,-0.3229,-0.3249,-0.3254,-0.3272,-0.3275,-0.3279,-0.3297,-0.3308,-0.3349,-0.3346,-0.3352,-0.3356,-0.3396,-0.3396,-0.3397,-0.338,-0.3379,-0.3378,0,0,0,0,0,0,-0.3156,-0.3187,-0.3194,-0.3209,-0.3226,-0.3253,-0.3259,-0.3269,-0.3287,-0.3288,-0.331,-0.3316,-0.3332,-0.3346,-0.3342,-0.3369,-0.3374,-0.3375,-0.3359,-0.3358,-0.3358,-0.3354,-0.3357,0,0,0,0,0,-0.3153,-0.3166,-0.3193,-0.3203,-0.3211,-0.3233,-0.3243,-0.3255,-0.3275,-0.3283,-0.3301,-0.332,-0.3338,-0.3349,-0.3366,-0.3382,-0.3389,-0.3387,-0.3386,-0.3386,-0.3387,-0.3398,-0.3398,-0.3397,-0.3397,-0.3397,0,0,-0.3147,-0.3165,-0.3172,-0.3199,-0.3214,-0.3229,-0.324,-0.3254,-0.3265,-0.3285,-0.3303,-0.3318,-0.3341,-0.3358,-0.3367,-0.337,-0.3389,-0.3386,-0.3385,-0.3387,-0.3398,-0.3398,-0.3398,-0.3397,-0.3397,-0.3397,0,0,-0.3143,-0.3158,-0.3169,-0.3184,-0.3206,-0.3222,-0.3224,-0.325,-0.326,-0.3279,-0.3294,-0.3309,-0.3338,-0.3354,-0.3366,-0.3371,-0.3382,-0.3376,-0.3371,-0.3382,-0.3382,-0.3382,-0.3385,-0.3386,-0.3377,-0.3377,-0.3377,0,-0.3133,-0.3155,-0.3173,-0.3187,-0.3199,-0.3217,-0.3229,-0.3243,-0.327,-0.3279,-0.3282,-0.332,-0.3337,-0.3359,-0.336,-0.3369,-0.3374,-0.3373,-0.338,-0.3381,-0.3381,-0.3384,-0.3385,-0.3376,-0.3376,-0.3376,-0.3376,0,-0.3142,-0.3157,-0.3163,-0.3189,-0.3201,-0.3214,-0.3236,-0.3247,-0.3258,-0.3274,-0.3294,-0.3314,-0.3337,-0.3343,-0.3355,-0.3368,-0.3369,-0.3376,-0.3382,-0.338,-0.3384,-0.3385,-0.3375,-0.3375,-0.3375,-0.3376,0,0,-0.3126,-0.3162,-0.3164,-0.3177,-0.3204,-0.3217,-0.3231,-0.3253,-0.3263,-0.3281,-0.3295,-0.332,-0.3327,-0.3341,-0.3355,-0.3364,-0.3368,-0.337,-0.3371,-0.337,-0.3385,-0.3381,-0.3382,-0.3375,-0.3376,-0.3376,-0.3384,0,-0.3127,-0.3153,-0.317,-0.319,-0.3205,-0.3223,-0.3236,-0.3255,-0.327,-0.3286,-0.3303,-0.3321,-0.3328,-0.3337,-0.3346,-0.3365,-0.3371,-0.3365,-0.339,-0.3391,-0.3384,-0.3383,-0.3378,-0.3384,-0.3385,-0.3385,-0.3386,0,-0.3131,-0.315,-0.317,-0.3197,-0.3204,-0.3215,-0.3238,-0.3252,-0.3275,-0.3285,-0.3301,-0.3315,-0.3333,-0.3337,-0.3363,-0.3358,-0.3369,-0.338,-0.3381,-0.3385,-0.3388,-0.3388,-0.3386,-0.3388,-0.3388,-0.3387,-0.3387,0,-0.3119,-0.3149,-0.3166,-0.3176,-0.3207,-0.3215,-0.3228,-0.3251,-0.3263,-0.3283,-0.3292,-0.3314,-0.3326,-0.3344,-0.3364,-0.3365,-0.3388,-0.3393,-0.3399,-0.3398,-0.3403,-0.3403,-0.3405,-0.3409,-0.3409,-0.3409,-0.3409,0,-0.3119,-0.3131,-0.3161,-0.3171,-0.3186,-0.3207,-0.3222,-0.3237,-0.3257,-0.3272,-0.3289,-0.3303,-0.3329,-0.3346,-0.3362,-0.3382,-0.3387,-0.3397,-0.3402,-0.3396,-0.3395,-0.3404,-0.3405,-0.3409,-0.3409,-0.3409,-0.3409,0,-0.3108,-0.3128,-0.3147,-0.3176,-0.3183,-0.3193,-0.3218,-0.323,-0.3246,-0.3265,-0.327,-0.3296,-0.3318,-0.334,-0.3369,-0.338,-0.34,-0.3405,-0.3392,-0.3395,-0.3399,-0.3399,-0.3408,-0.3411,-0.3412,-0.3412,-0.3412,0,-0.3107,-0.3117,-0.3146,-0.3157,-0.317,-0.3187,-0.3201,-0.3222,-0.3235,-0.3262,-0.3271,-0.3294,-0.3313,-0.3347,-0.3369,-0.3392,-0.3399,-0.3401,-0.3403,-0.3398,-0.3401,-0.34,-0.3402,-0.34,-0.34,-0.34,-0.34,0,-0.3103,-0.3113,-0.313,-0.3152,-0.3167,-0.3185,-0.3204,-0.3212,-0.3238,-0.3252,-0.3274,-0.3289,-0.3319,-0.3342,-0.3368,-0.3384,-0.3397,-0.3399,-0.3402,-0.3397,-0.3389,-0.3394,-0.3391,-0.3399,-0.3399,-0.3399,-0.3399,-0.3399,-0.3098,-0.3108,-0.3131,-0.3151,-0.3167,-0.3185,-0.3197,-0.3215,-0.3234,-0.326,-0.3272,-0.3294,-0.3318,-0.3354,-0.337,-0.3389,-0.3392,-0.3396,-0.3397,-0.3398,-0.3397,-0.3385,-0.3393,-0.3393,-0.3393,-0.3394,-0.3394,0,-0.3096,-0.3112,-0.313,-0.3156,-0.3172,-0.3182,-0.3204,-0.3217,-0.3236,-0.3257,-0.3276,-0.3302,-0.3325,-0.3349,-0.3374,-0.3384,-0.3391,-0.339,-0.339,-0.3394,-0.3392,-0.3387,-0.3385,-0.3385,-0.3385,-0.3385,-0.3385,-0.3385,-0.3097,-0.3116,-0.3128,-0.3156,-0.3172,-0.3194,-0.3205,-0.3222,-0.3239,-0.3268,-0.3287,-0.3302,-0.3325,-0.3352,-0.3374,-0.3381,-0.3389,-0.3387,-0.3396,-0.3393,-0.3394,-0.3394,-0.3391,-0.3389,-0.3389,-0.3397,-0.3397,-0.3397]}]]